sat.trackr.live / text

‹ back to catalog

STARLINK-6307

NORAD 56529 · 2023-065AC

PAYLOAD ACTIVE UNKNOWN

§ Identity

Operator
Country
US
Launch date
2023-05-14
Launch site
AFETR
Launch vehicle
Mass (kg)
RCS (m²)

Purposes: comms

External: N2YO · Heavens-Above · Gunter

§ Orbital elements

Epoch: 2026-09-20T01:32:28.644288Z

Period
94.27 min
Inclination
43.0017°
Eccentricity
0.0001346
Mean motion
15.27573917 rev/d
Perigee alt
482.1 km
Apogee alt
484.0 km
Semi-major
6,861.2 km
B*
-8.6820e-7
RAAN
183.7167°
Arg perigee
262.0758°
Mean anomaly
97.9941°
Rev number
18,645

§ Raw data

STARLINK-63071 56529U 23065AC  26263.06422042 -.00000286  00000+0 -86820-6 0  99992 56529  43.0017 183.7167 0001346 262.0758  97.9941 15.27573917186451

JSON: /api/v1/satellites/56529 · /tle

For live sub-satellite position, see the globe view (requires WebGL).

§ Visibility from observer

Set your observer location to see the next 7 days of passes ≥ 10°. The values pass through the URL so the page stays shareable.

No JS? Fill the form by hand. The geolocation button needs JavaScript.